TimeMST,TemperatureF,Dew PointF,Humidity,Sea Level PressureIn,VisibilityMPH,Wind Direction,Wind SpeedMPH,Gust SpeedMPH,PrecipitationIn,Events,Conditions,WindDirDegrees,DateUTC
12:53 AM,33.1,23.0,66,29.96,10.0,South,13.8,24.2,N/A,,Clear,190,2013-03-07 07:53:00
1:53 AM,32.0,21.9,66,29.97,10.0,South,10.4,19.6,N/A,,Clear,190,2013-03-07 08:53:00
2:53 AM,30.9,21.0,67,29.97,10.0,SSW,12.7,-,N/A,,Clear,200,2013-03-07 09:53:00
3:53 AM,30.0,19.9,66,29.94,10.0,SSW,8.1,-,N/A,,Clear,200,2013-03-07 10:53:00
4:53 AM,28.9,19.0,67,30.04,10.0,SSW,6.9,-,N/A,,Clear,200,2013-03-07 11:53:00
5:53 AM,28.0,19.0,69,30.05,10.0,SSW,4.6,-,N/A,,Clear,200,2013-03-07 12:53:00
6:53 AM,28.0,18.0,66,30.06,10.0,Variable,3.5,-,N/A,,Clear,0,2013-03-07 13:53:00
7:53 AM,26.1,19.0,75,30.09,10.0,Calm,Calm,-,N/A,,Clear,0,2013-03-07 14:53:00
8:53 AM,28.9,19.9,69,30.10,10.0,Calm,Calm,-,N/A,,Clear,0,2013-03-07 15:53:00
9:53 AM,30.9,21.9,69,30.10,10.0,Calm,Calm,-,N/A,,Partly Cloudy,0,2013-03-07 16:53:00
10:53 AM,34.0,23.0,64,30.09,10.0,NE,3.5,-,N/A,,Clear,40,2013-03-07 17:53:00
11:53 AM,36.0,21.9,57,30.08,10.0,ENE,4.6,-,N/A,,Clear,70,2013-03-07 18:53:00
12:53 PM,36.0,23.0,59,30.07,10.0,ENE,5.8,-,N/A,,Clear,70,2013-03-07 19:53:00
1:53 PM,36.0,21.9,57,30.04,10.0,ENE,6.9,-,N/A,,Clear,60,2013-03-07 20:53:00
2:53 PM,36.0,21.0,55,30.03,10.0,ENE,5.8,-,N/A,,Scattered Clouds,70,2013-03-07 21:53:00
3:53 PM,36.0,19.9,52,30.04,10.0,ENE,6.9,-,N/A,,Mostly Cloudy,70,2013-03-07 22:53:00
4:53 PM,35.1,19.9,54,30.03,10.0,East,5.8,-,N/A,,Overcast,80,2013-03-07 23:53:00
5:53 PM,34.0,21.0,59,30.04,10.0,East,3.5,-,N/A,,Overcast,80,2013-03-08 00:53:00
6:53 PM,34.0,21.9,61,30.04,10.0,ENE,3.5,-,N/A,,Overcast,70,2013-03-08 01:53:00
7:53 PM,34.0,21.9,61,30.04,10.0,East,3.5,-,N/A,,Overcast,80,2013-03-08 02:53:00
8:53 PM,32.0,25.0,75,30.04,10.0,NNE,4.6,-,N/A,,Overcast,20,2013-03-08 03:53:00
9:53 PM,30.9,24.1,76,30.03,10.0,NNE,5.8,-,N/A,,Overcast,30,2013-03-08 04:53:00
10:53 PM,30.9,25.0,79,30.00,10.0,ENE,4.6,-,N/A,,Overcast,60,2013-03-08 05:53:00
11:53 PM,30.9,26.1,82,29.98,10.0,NNE,4.6,-,N/A,,Overcast,20,2013-03-08 06:53:00